sat.trackr.live / text

‹ back to catalog

STARLINK-2614

NORAD 48380 · 2021-038AD

PAYLOAD ACTIVE UNKNOWN

§ Identity

Operator
Country
US
Launch date
2021-05-04
Launch site
AFETR
Launch vehicle
Mass (kg)
RCS (m²)

Purposes: comms

External: N2YO · Heavens-Above · Gunter

§ Orbital elements

Epoch: 2026-09-14T19:18:19.273536Z

Period
94.01 min
Inclination
53.1608°
Eccentricity
0.0001495
Mean motion
15.31700874 rev/d
Perigee alt
469.7 km
Apogee alt
471.8 km
Semi-major
6,848.9 km
B*
6.6572e-5
RAAN
185.5320°
Arg perigee
87.3303°
Mean anomaly
272.7870°
Rev number
29,623

§ Raw data

STARLINK-26141 48380U 21038AD  26257.80438974  .00001701  00000+0  66572-4 0  99902 48380  53.1608 185.5320 0001495  87.3303 272.7870 15.31700874296236

JSON: /api/v1/satellites/48380 · /tle

For live sub-satellite position, see the globe view (requires WebGL).

§ Visibility from observer

Set your observer location to see the next 7 days of passes ≥ 10°. The values pass through the URL so the page stays shareable.

No JS? Fill the form by hand. The geolocation button needs JavaScript.